Flag for Egypt Weather past 2 weeks in Al Jizah, Egypt

Now
59 °F

Clear.


Feels Like: 59 °F
Forecast: 59 / 75 °F
Wind: No wind

Location: Cairo Airport

Current Time: Mar 31, 2015 at 5:43:52 AM

Latest Report: Mar 31, 2015 at 5:00 AM


Visibility: 10 mi

Pressure: 30.01 "Hg

Humidity: 63%

Dew point: 46 °F

Location of Al JizahLocation

Historic Weather in Al Jizah — Graph

°F

Al Jizah temperature yesterday

Maximum temperature yesterday: 75 °F (at 3:00 PM)
Minimum temperature yesterday: 61 °F (at 6:00 AM)
Average temperature yesterday: 68 °F

Past Weeks' High & Low Weather Summary

 TemperatureHumidityPressure
High95 °F (Mar 27, 3:00 PM)100% (Mar 29, 5:00 AM)30.18 "Hg (Mar 29, 5:00 AM)
Low48 °F (Mar 22, 6:30 AM)15% (Mar 23, 1:30 PM)29.62 "Hg (Mar 28, 12:00 AM)
Average66 °F50%29.99 "Hg
* Reported Mar 16 4:00 AM — Mar 31 4:30 AM, Al Jizah, Weather by CustomWeather, © 2015

Note: Actual official high and low records may vary slightly from our data, if they occured in-between our weather recording intervals... More about our weather records

Advertising

Al Jizah weather history for previous 24 hours

 ConditionsComfort  
Time TempWeatherWind HumidityBarometerVisibility
4:30 AM
Tue, Mar 31
59 °FClear.2 mph63%30.01 "Hg10 mi
4:00 AM59 °FClear.5 mph63%30.01 "Hg10 mi
3:30 AM61 °FClear.5 mph59%30.01 "Hg10 mi
3:00 AM59 °FClear.3 mph68%30.01 "Hg10 mi
2:30 AM61 °FClear.3 mph63%30.01 "Hg10 mi
2:00 AM59 °FClear.No wind72%30.01 "Hg10 mi
1:30 AM61 °FClear.3 mph68%30.01 "Hg10 mi
1:00 AM61 °FClear.No wind63%30.01 "Hg10 mi
12:30 AM63 °FClear.3 mph64%30.04 "Hg10 mi
12:00 AM63 °FClear.No wind64%30.04 "Hg10 mi
11:00 PM
Mon, Mar 30
63 °FClear.5 mph64%30.04 "Hg10 mi
10:30 PM64 °FClear.5 mph64%30.04 "Hg10 mi
10:00 PM64 °FClear.3 mph64%30.04 "Hg10 mi
9:30 PM64 °FClear.7 mph64%30.04 "Hg10 mi
9:00 PM66 °FClear.6 mph56%30.04 "Hg10 mi
8:30 PM66 °FClear.6 mph56%30.04 "Hg10 mi
8:00 PM66 °FClear.7 mph56%30.01 "Hg10 mi
7:30 PM68 °FPassing clouds.8 mph49%30.01 "HgN/A
7:00 PM68 °FPassing clouds.8 mph46%29.98 "HgN/A
6:30 PM72 °FPassing clouds.9 mph36%29.98 "HgN/A
6:00 PM72 °FScattered clouds.9 mph36%29.98 "HgN/A
5:30 PM73 °FPartly sunny.8 mph33%29.98 "HgN/A
5:00 PM73 °FPartly sunny.8 mph33%29.98 "HgN/A
4:30 PM73 °FPartly sunny.7 mph33%29.98 "HgN/A
4:00 PM73 °FPartly sunny.13 mph33%29.98 "HgN/A
3:30 PM75 °FPartly sunny.8 mph31%29.98 "HgN/A
3:00 PM75 °FPartly sunny.13 mph31%29.98 "HgN/A
2:30 PM73 °FPartly sunny.9 mph33%29.98 "HgN/A
2:00 PM73 °FPartly sunny.14 mph36%29.98 "HgN/A
1:30 PM73 °FPartly sunny.9 mph36%29.98 "HgN/A
1:00 PM73 °FPartly sunny.7 mph36%30.01 "HgN/A
12:30 PM72 °FPartly sunny.9 mph41%30.01 "HgN/A
12:00 PM72 °FPartly sunny.9 mph41%30.01 "HgN/A
11:30 AM70 °FPartly sunny.8 mph43%30.01 "HgN/A
11:00 AM70 °FPassing clouds.7 mph46%30.04 "HgN/A
10:30 AM70 °FSunny.3 mph46%30.04 "Hg10 mi
10:00 AM68 °FSunny.8 mph49%30.04 "Hg10 mi
9:30 AM68 °FSunny.6 mph49%30.04 "Hg10 mi
9:00 AM66 °FSunny.7 mph56%30.04 "Hg10 mi
7:30 AM63 °FSunny.7 mph64%30.01 "Hg10 mi
7:00 AM63 °FSunny.6 mph59%30.01 "Hg10 mi
6:30 AM61 °FSunny.6 mph63%30.01 "Hg10 mi
6:00 AM61 °FSunny.6 mph55%29.98 "Hg10 mi
5:30 AM63 °FClear.5 mph49%29.98 "Hg10 mi
5:00 AM63 °FClear.5 mph42%29.95 "Hg10 mi
Weather by CustomWeather, © 2015

See weather overviewHow to use our weather pages